Location: Kings Park
(40.8862°N, 73.2573°W)
Time: 09:23:56
(UTC+00:00)

NOAA 11 - Pass Details

Date: 29 October 2020
Orbit: 833 x 850 km, 98.4° (Epoch: 23 November)

Event Time Altitude Azimuth Distance (km) Brightness Sun altitude
Rises 22:22:29 0° 154° (SSE) 3,381 7.2 -6.4°
Reaches altitude 10° 22:24:52 10° 150° (SSE) 2,448 6.4 -6.8°
Maximum altitude 22:30:11 58° 72° (ENE) 968 4.2 -7.8°
Drops below altitude 10° 22:35:31 10° 355° (N) 2,454 6.6 -8.8°
Sets 22:37:54 0° 351° (N) 3,391 7.3 -9.2°
